Weather History for Branson, MO

Change the Weather History Date:

Sunday, January 27, 2013

  Actual Average (KHRO) Record (KHRO)
Temperature  
Mean Temperature 50 °F 37 °F  
Max Temperature 57 °F 47 °F 76 °F (1975)
Min Temperature 42 °F 27 °F 0 °F (1963)
Degree Days  
Heating Degree Days 16 28  
Month to date heating degree days 776  
Since 1 July heating degree days 2375  
Cooling Degree Days 0 0  
Month to date cooling degree days 0  
Year to date cooling degree days 0  
Moisture  
Dew Point 42 °F    
Average Humidity 79    
Maximum Humidity 100    
Minimum Humidity 49    
Precipitation  
Precipitation 0.00 in 0.08 in 3.76 in (2009)
Month to date precipitation 2.24  
Year to date precipitation 2.24  
Snow  
Snow 0.00 in 0.20 in 5.10 in (2000)
Month to date snowfall 3.6  
Since 1 July snowfall 5.4  
Snow Depth -    
Sea Level Pressure  
Sea Level Pressure 30.06 in    
Wind  
Wind Speed 11 mph (SE)    
Max Wind Speed 16 mph    
Max Gust Speed 21 mph    
Visibility 9 miles    
Events Rain    
T = Trace of Precipitation, MM = Missing Value Source: NWS Daily Summary

Daily Weather History Graph

Daily Weather History Graph

Search for Another Location

Airport:

Trip Planner

Search our weather history database for the weather conditions in past years. The results will help you decide how hot, cold, wet, or windy it might be!

Date:

Astronomy

Jan. 27, 2013 Rise Set
Actual Time 7:17 AM CST 5:33 PM CST
Civil Twilight 6:50 AM CST 6:01 PM CST
Nautical Twilight 6:19 AM CST 6:32 PM CST
Astronomical Twilight 5:48 AM CST 7:02 PM CST
Moon 6:25 PM CST (1/27) 7:13 AM CST (1/27)
Length of Visible Light 11h 10m
Length of Day
10h 15m
Full, 100% of the Moon is Illuminated
Jan 27
Full
Feb 3
Last Quarter
Feb 10
New
Feb 17
First Quarter
Feb 25
Full

Hourly Weather History & Observations

Time (CST) Temp. Windchill Dew Point Humidity Pressure Visibility Wind Dir Wind Speed Gust Speed Precip Events Conditions
12:15 AM 44.6 °F 38.4 °F 26.6 °F 49% 30.17 in 10.0 mi SE 12.7 mph - N/A   Overcast
12:35 AM 44.6 °F 39.7 °F 26.6 °F 49% 30.17 in 10.0 mi SE 9.2 mph - N/A   Overcast
12:55 AM 44.6 °F 39.2 °F 28.4 °F 53% 30.17 in 10.0 mi SE 10.4 mph - N/A   Overcast
1:15 AM 44.6 °F 39.2 °F 28.4 °F 53% 30.17 in 10.0 mi SE 10.4 mph - N/A   Overcast
1:35 AM 44.6 °F 38.8 °F 30.2 °F 57% 30.17 in 10.0 mi SE 11.5 mph - N/A Rain Light Rain
1:55 AM 42.8 °F 37.0 °F 30.2 °F 61% 30.17 in 10.0 mi SE 10.4 mph - N/A   Overcast
2:15 AM 42.8 °F 36.6 °F 30.2 °F 61% 30.16 in 10.0 mi SE 11.5 mph - N/A Rain Light Rain
2:35 AM 42.8 °F 36.2 °F 32.0 °F 66% 30.16 in 10.0 mi SE 12.7 mph - N/A Rain Light Rain
2:55 AM 42.8 °F 36.2 °F 32.0 °F 66% 30.16 in 9.0 mi SE 12.7 mph 20.7 mph N/A Rain Light Rain
3:15 AM 42.8 °F 36.6 °F 32.0 °F 66% 30.14 in 10.0 mi SE 11.5 mph - N/A   Mostly Cloudy
3:35 AM 42.8 °F 36.6 °F 32.0 °F 66% 30.15 in 10.0 mi SE 11.5 mph - N/A   Overcast
3:55 AM 42.8 °F 37.0 °F 32.0 °F 66% 30.14 in 10.0 mi ESE 10.4 mph - N/A   Overcast
4:15 AM 42.8 °F 37.5 °F 32.0 °F 66% 30.14 in 10.0 mi ESE 9.2 mph 16.1 mph N/A Rain Light Rain
4:35 AM 42.8 °F 37.0 °F 32.0 °F 66% 30.13 in 10.0 mi SE 10.4 mph - N/A   Overcast
4:55 AM 42.8 °F 35.8 °F 32.0 °F 66% 30.11 in 10.0 mi SE 13.8 mph 17.3 mph N/A   Overcast
5:15 AM 42.8 °F 35.8 °F 32.0 °F 66% 30.10 in 10.0 mi SE 13.8 mph - N/A   Overcast
5:35 AM 42.8 °F 35.4 °F 32.0 °F 66% 30.10 in 10.0 mi SE 15.0 mph - N/A   Overcast
6:45 AM 42.8 °F 37.0 °F 35.6 °F 76% 30.11 in 10.0 mi SE 10.4 mph - N/A   Overcast
7:45 AM 42.8 °F 37.0 °F 35.6 °F 76% 30.11 in 9.0 mi SE 10.4 mph - N/A   Overcast
8:45 AM 44.6 °F 38.1 °F 37.4 °F 76% 30.12 in 6.0 mi SE 13.8 mph - N/A   Overcast
9:45 AM 44.6 °F 38.1 °F 41.0 °F 87% 30.11 in 4.0 mi SE 13.8 mph 18.4 mph N/A   Overcast
10:50 AM 44.6 °F 37.8 °F 42.8 °F 93% 30.10 in 3.0 mi SE 15.0 mph 19.6 mph N/A Rain Light Rain
11:51 AM 46.4 °F 39.8 °F 44.6 °F 93% 30.09 in 3.0 mi SE 16.1 mph - N/A Rain Light Rain
12:45 PM 46.4 °F 41.5 °F 46.4 °F 100% 30.06 in 3.0 mi SE 10.4 mph - N/A Rain Light Rain
1:45 PM 48.2 °F - 48.2 °F 100% 30.01 in 3.0 mi SE 12.7 mph - N/A Rain Light Rain
2:47 PM 53.6 °F - 50.0 °F 88% 30.00 in 7.0 mi SSE 13.8 mph - N/A   Mostly Cloudy
3:49 PM 53.6 °F - 50.0 °F 88% 29.99 in 10.0 mi SSE 12.7 mph - N/A   Overcast
4:50 PM 55.4 °F - 50.0 °F 82% 29.97 in 10.0 mi SSE 13.8 mph - N/A   Mostly Cloudy
5:55 PM 53.6 °F - 50.0 °F 88% 29.98 in 10.0 mi SSE 11.5 mph - N/A   Mostly Cloudy
6:58 PM 53.6 °F - 50.0 °F 88% 30.00 in 10.0 mi SSE 8.1 mph - N/A   Overcast
7:55 PM 53.6 °F - 50.0 °F 88% 29.99 in 10.0 mi SSE 9.2 mph - N/A   Mostly Cloudy
7:58 PM 53.6 °F - 50.0 °F 88% 29.99 in 10.0 mi SSE 9.2 mph - N/A   Overcast
8:15 PM 53.6 °F - 51.8 °F 94% 29.99 in 10.0 mi SSE 9.2 mph - N/A   Mostly Cloudy
8:35 PM 53.6 °F - 51.8 °F 94% 29.99 in 10.0 mi SSE 9.2 mph - N/A   Overcast
8:50 PM 53.6 °F - 51.8 °F 94% 30.00 in 10.0 mi SSE 9.2 mph - N/A   Overcast
8:55 PM 53.6 °F - 51.8 °F 94% 29.99 in 10.0 mi SSE 9.2 mph - N/A   Mostly Cloudy
9:15 PM 53.6 °F - 51.8 °F 94% 29.99 in 9.0 mi SSE 8.1 mph - N/A   Overcast
9:35 PM 53.6 °F - 51.8 °F 94% 29.99 in 9.0 mi SSE 6.9 mph - N/A   Overcast
9:55 PM 53.6 °F - 53.6 °F 100% 29.98 in 9.0 mi SSE 10.4 mph - N/A   Overcast
10:15 PM 55.4 °F - 53.6 °F 94% 29.98 in 9.0 mi SSE 9.2 mph - N/A   Overcast
10:35 PM 55.4 °F - 53.6 °F 94% 29.97 in 10.0 mi SSE 10.4 mph - N/A   Mostly Cloudy
10:55 PM 57.2 °F - 53.6 °F 88% 29.97 in 10.0 mi SSE 10.4 mph - N/A   Scattered Clouds
11:15 PM 57.2 °F - 53.6 °F 88% 29.96 in 10.0 mi SSE 11.5 mph 16.1 mph N/A   Scattered Clouds
11:35 PM 57.2 °F - 53.6 °F 88% 29.97 in 10.0 mi SSE 6.9 mph - N/A   Clear
11:55 PM 57.2 °F - 53.6 °F 88% 29.96 in 10.0 mi South 9.2 mph - N/A   Clear